Location: Squirrel Cove
(50.1074°N, 124.9139°W)
Time: 13:35:24
(UTC-07:00)

PCSat - Pass Details

Date: 29 May 2022
Orbit: 784 x 795 km, 67.1° (Epoch: 26 June)

Event Time Altitude Azimuth Distance (km) Brightness Sun altitude
Rises 22:17:29 0° 312° (NW) 3,304 15.2 -7.9°
Reaches altitude 10° 22:21:16 10° 338° (NNW) 2,374 13.4 -8.3°
Maximum altitude 22:23:58 14° 8° (N) 2,123 12.4 -8.6°
Drops below altitude 10° 22:26:40 10° 38° (NE) 2,373 12.2 -8.8°
Sets 22:30:26 0° 65° (ENE) 3,302 12.6 -9.2°
